TimeMST,TemperatureF,Dew PointF,Humidity,Sea Level PressureIn,VisibilityMPH,Wind Direction,Wind SpeedMPH,Gust SpeedMPH,PrecipitationIn,Events,Conditions,WindDirDegrees,DateUTC
12:55 AM,30.0,21.9,72,30.02,10.0,Variable,3.5,-,N/A,,Clear,0,2012-12-06 07:55:00
1:55 AM,30.0,21.0,69,30.01,10.0,Calm,Calm,-,N/A,,Mostly Cloudy,0,2012-12-06 08:55:00
2:55 AM,28.0,21.0,75,30.03,10.0,Calm,Calm,-,N/A,,Partly Cloudy,0,2012-12-06 09:55:00
3:55 AM,27.0,21.0,78,30.03,10.0,Calm,Calm,-,N/A,,Clear,0,2012-12-06 10:55:00
4:55 AM,25.0,19.9,81,30.03,10.0,NW,3.5,-,N/A,,Clear,320,2012-12-06 11:55:00
5:55 AM,26.1,19.9,78,30.03,10.0,Calm,Calm,-,N/A,,Partly Cloudy,0,2012-12-06 12:55:00
6:55 AM,26.1,19.9,78,30.05,10.0,Calm,Calm,-,N/A,,Partly Cloudy,0,2012-12-06 13:55:00
7:55 AM,26.1,19.9,78,30.05,10.0,Calm,Calm,-,N/A,,Clear,0,2012-12-06 14:55:00
8:55 AM,26.1,21.0,81,30.04,10.0,Calm,Calm,-,N/A,,Clear,0,2012-12-06 15:55:00
9:55 AM,30.0,21.9,72,30.01,10.0,Calm,Calm,-,N/A,,Clear,0,2012-12-06 16:55:00
10:55 AM,33.1,24.1,70,30.02,10.0,Calm,Calm,-,N/A,,Clear,0,2012-12-06 17:55:00
11:55 AM,35.1,21.9,59,29.98,10.0,Calm,Calm,-,N/A,,Clear,0,2012-12-06 18:55:00
12:55 PM,37.9,21.9,53,29.95,10.0,Calm,Calm,-,N/A,,Partly Cloudy,0,2012-12-06 19:55:00
1:55 PM,41.0,19.0,41,29.92,10.0,WSW,12.7,19.6,N/A,,Mostly Cloudy,250,2012-12-06 20:55:00
2:55 PM,41.0,16.0,36,29.92,10.0,West,16.1,23.0,N/A,,Partly Cloudy,260,2012-12-06 21:55:00
3:55 PM,39.9,15.1,36,29.93,10.0,WSW,6.9,-,N/A,,Clear,240,2012-12-06 22:55:00
4:55 PM,36.0,14.0,41,29.94,10.0,SW,10.4,-,N/A,,Clear,220,2012-12-06 23:55:00
5:55 PM,33.1,15.1,48,29.94,10.0,WSW,4.6,-,N/A,,Clear,250,2012-12-07 00:55:00
6:55 PM,34.0,15.1,46,29.96,10.0,WSW,9.2,-,N/A,,Clear,250,2012-12-07 01:55:00
7:55 PM,34.0,14.0,44,29.99,10.0,WSW,11.5,-,N/A,,Clear,250,2012-12-07 02:55:00
8:55 PM,32.0,15.1,50,30.01,10.0,West,6.9,-,N/A,,Clear,270,2012-12-07 03:55:00
9:55 PM,30.0,16.0,56,30.01,10.0,SSW,5.8,-,N/A,,Clear,210,2012-12-07 04:55:00
10:55 PM,30.9,12.9,47,30.01,10.0,WSW,3.5,-,N/A,,Clear,250,2012-12-07 05:55:00
11:55 PM,30.9,14.0,50,30.01,10.0,Variable,5.8,-,N/A,,Clear,0,2012-12-07 06:55:00